This is the latest recevied weather packets stored in our database for station/object OE6PLD-13. If no packets are shown the sender has not sent any weather packets the latest 10 day(s).
| Time | Temp. | Humidity | Pressure | Rain* | Wind** | Luminosity | Snow |
|---|---|---|---|---|---|---|---|
| 1777652915 | 20° C | 39% | 1011 hPa | 0.76 mm | - | 42 W/m² | - |
| 1777652731 | 19.44° C | 39% | 1011.1 hPa | 0.76 mm | - | 45 W/m² | - |
| 1777652548 | 20° C | 39% | 1011.1 hPa | 0.76 mm | - | 41 W/m² | - |
| 1777652364 | 19.44° C | 39% | 1011.1 hPa | 0.76 mm | - | 65 W/m² | - |
| 1777652181 | 20° C | 39% | 1011.2 hPa | 0.76 mm | - | 77 W/m² | - |
| 1777651998 | 20° C | 38% | 1011.2 hPa | 0.76 mm | - | 107 W/m² | - |
| 1777651814 | 20° C | 39% | 1011.3 hPa | 0.76 mm | - | 120 W/m² | - |
| 1777651631 | 19.44° C | 39% | 1011.4 hPa | 0.76 mm | - | 132 W/m² | - |
| 1777651448 | 20° C | 38% | 1011.2 hPa | 0.76 mm | - | 146 W/m² | - |
| 1777651264 | 20° C | 38% | 1011.1 hPa | 0.76 mm | - | 155 W/m² | - |
| 1777651081 | 20° C | 39% | 1011.3 hPa | 0.76 mm | - | 164 W/m² | - |
| 1777650898 | 20° C | 38% | 1011.3 hPa | 0.76 mm | - | 181 W/m² | - |
| 1777650714 | 20° C | 38% | 1011.3 hPa | 0.76 mm | - | 183 W/m² | - |
| 1777650531 | 20° C | 38% | 1011.1 hPa | 0.76 mm | - | 73 W/m² | - |
| 1777650347 | 20° C | 39% | 1011.3 hPa | 0.76 mm | - | 153 W/m² | - |
| 1777650164 | 20.56° C | 37% | 1011.2 hPa | 0.76 mm | - | 171 W/m² | - |
| 1777649981 | 20.56° C | 36% | 1011.2 hPa | 0.76 mm | - | 157 W/m² | - |
| 1777649797 | 20° C | 37% | 1011.3 hPa | 0.76 mm | - | 161 W/m² | - |
| 1777649614 | 20.56° C | 36% | 1011.6 hPa | 0.76 mm | - | 167 W/m² | - |
| 1777649431 | 20° C | 38% | 1011.3 hPa | 0.76 mm | - | 182 W/m² | - |
| 1777649248 | 20° C | 38% | 1011.5 hPa | 0.76 mm | - | 51 W/m² | - |
| 1777649064 | 20° C | 37% | 1011.5 hPa | 0.76 mm | - | 219 W/m² | - |
| 1777648881 | 20° C | 37% | 1011.5 hPa | 0.76 mm | - | 215 W/m² | - |
| 1777648698 | 20° C | 37% | 1011.5 hPa | 0.76 mm | - | 225 W/m² | - |
| 1777648514 | 19.44° C | 39% | 1011.5 hPa | 0.76 mm | - | 215 W/m² | - |
* Rain latest hour (hover to see other rain measurements)
** Current wind speed in m/s (hover to see current wind gust speed)